SCP
0 0 0 0 0 0 0 0 0 0 0 0 0 0 0 0 0 0 0 0 0 0 0 0 0 0 0 0 0 0 0 0 0 0 0 0 0 0 0 0 0 0 0
0 0 0 0 0 0 0 0 0 0 0 0 0 0 0 0 0 0 0 0 0 0 0 0 0 0 0 0 0 0 0 0 0 0 0 0 0 0 0 0 0 0 0
0 0 0 0 0 0 0 0 0 0 0 0 0 0 0 0 0 0 0 0 0 0 0 0 0 0 0 0 0 0 0 0 0 0 0 0 0 0 0 0 0 0 0
0 0 0 0 0 0 0 0 0 0 0 0 0 0 0 0 0 0 0 0 0 0 0 0 0 0 0 0 0 0 0 0 0 0 0 0 0 0 0 0 0 0 0
0 0 0 0 0 0 0 0 0 0 0 0 0 0 0 0 0 0 0 0 0 0 0 0 0 0 0 0 0 0 0 0 0 0 0 0 0 0 0 0 0 0 0
0 0 0 0 0 0 0 0 0 0 0 0 0 0 0 0 0 0 0 0 0 0 0 0 0 0 0 0 0 0 0 0 0 0 0 0 0 0 0 0 0 0 0
0 0 0 0 0 0 0 0 0 0 0 0 0 0 0 0 0 0 0 0 0 0 0 0 0 0 0 0 0 0 0 0 0 0 0 0 0 0 0 0 0 0 0
0 0 0 0 0 0 0 0 0 0 0 0 0 0 0 0 0 0 0 0 0 0 0 0 0 0 0 0 0 0 0 0 0 0 0 0 0 0 0 0 0 0 0
0 0 0 0 0 0 0 0 0 0 0 0 0 0 0 0 0 0 0 0 0 0 0 0 0 0 0 0 0 0 0 0 0 0 0 0 0 0 0 0 0 0 0
0 0 0 0 0 0 0 0 0 0 0 0 0 0 0 0 0 0 0 0 0 0 0 0 0 0 0 0 0 0 0 0 0 0 0 0 0 0 0 0 0 0 0
0 0 0 0 0 0 0 0 0 0 0 0 0 0 0 0 0 0 0 0 0 0 0 0 0 0 0 0 0 0 0 0 0 0 0 0 0 0 0 0 0 0 0
0 0 0 0 0 0 0 0 0 0 0 0 0 0 0 0 0 0 0 0 0 0 0 0 0 0 0 0 0 0 0 0 0 0 0 0 0 0 0 0 0 0 0
0 0 0 0 0 0 0 0 0 0 0 0 0 0 0 0 0 0 0 0 0 0 0 0 0 0 0 0 0 0 0 0 0 0 0 0 0 0 0 0 0 0 0
0 0 0 0 0 0 0 0 0 0 0 0 0 0 0 0 0 0 0 0 0 0 0 0 0 0 0 0 0 0 0 0 0 0 0 0 0 0 0 0 0 0 0
0 0 0 0 0 0 0 0 0 0 0 0 0 0 0 0 0 0 0 0 0 0 0 0 0 0 0 0 0 0 0 0 0 0 0 0 0 0 0 0 0 0 0
0 0 0 0 0 0 0 0 0 0 0 0 0 0 0 0 0 0 0 0 0 0 0 0 0 0 0 0 0 0 0 0 0 0 0 0 0 0 0 0 0 0 0
0 0 0 0 0 0 0 0 0 0 0 0 0 0 0 0 0 0 0 0 0 0 0 0 0 0 0 0 0 0 0 0 0 0 0 0 0 0 0 0 0 0 0
0 0 0 0 0 0 0 0 0 0 0 0 0 0 0 0 0 0 0 0 0 0 0 0 0 0 0 0 0 0 0 0 0 0 0 0 0 0 0 0 0 0 0
0 0 0 0 0 0 0 0 0 0 0 0 0 0 0 0 0 0 0 0 0 0 0 0 0 0 0 0 0 0 0 0 0 0 0 0 0 0 0 0 0 0 0
0 0 0 0 0 0 0 0 0 0 0 0 0 0 0 0 0 0 0 0 0 0 0 0 0 0 0 0 0 0 0 0 0 0 0 0 0 0 0 0 0 0 0
0 0 0 0 0 0 0 0 0 0 0 0 0 0 0 0 0 0 0 0 0 0 0 0 0 0 0 0 0 0 0 0 0 0 0 0 0 0 0 0 0 0 0
0 0 0 0 0 0 0 0 0 0 0 0 0 0 0 0 0 0 0 0 0 0 0 0 0 0 0 0 0 0 0 0 0 0 0 0 0 0 0 0 0 0 0
0 0 0 0 0 0 0 0 0 0 0 0 0 0 0 0 0 0 0 0 0 0 0 0 0 0 0 0 0 0 0 0 0 0 0 0 0 0 0 0 0 0 0
1 0 0 0 0 0 0 0 0 0 0 0 0 0 0 0 0 0 0 0 0 0 0 0 0 0 0 0 0 0 0 0 0 0 0 0 0 0 0 0 0 0 0
1 0 0 0 0 0 0 0 0 0 0 0 0 0 0 0 0 0 0 0 0 0 0 0 0 0 0 0 0 0 0 0 0 0 0 0 0 0 0 0 0 0 0
1 0 0 0 0 0 0 0 0 0 0 0 0 0 0 0 0 0 0 0 0 0 0 0 0 0 0 0 0 0 0 0 0 0 0 0 0 0 0 0 0 0 0
Wind_Speed
3 2 1 1 1 1 1 1 0 1 1 1 2 4 4 4 4 4 4 11 11 10 11 11 11 11 11 10 10 10 10 10 10 9 9 10 9 9 9 9 8 8 7
3 3 2 2 1 1 1 1 1 1 1 1 2 3 4 4 4 4 3 6 11 11 11 11 11 12 11 11 10 10 10 10 9 9 9 9 9 8 8 8 8 8 7
4 3 3 2 1 1 2 1 1 2 1 1 2 2 3 3 4 5 4 3 4 9 11 11 12 12 12 11 11 10 10 10 9 9 9 9 8 8 8 8 8 8 7
4 3 2 2 1 1 1 1 1 2 1 1 1 1 2 2 4 4 4 3 3 4 7 11 11 11 12 11 11 11 11 10 10 10 10 10 10 9 9 8 8 8 8
4 3 2 2 1 1 1 1 1 1 1 0 0 0 1 2 3 4 4 5 4 4 3 8 11 11 12 12 12 12 11 11 11 11 11 11 11 10 9 9 9 9 8
4 3 2 2 2 2 1 1 1 1 1 1 0 1 0 1 2 3 5 4 5 6 5 5 5 7 11 11 12 12 13 13 12 12 12 12 12 11 10 10 9 9 9
4 4 2 2 2 2 2 2 2 1 0 1 2 2 2 1 1 2 3 3 5 5 5 5 4 3 4 10 11 12 13 13 13 13 13 13 12 12 11 11 10 10 10
5 4 4 3 3 2 2 2 2 1 0 1 2 1 2 4 3 1 1 3 4 4 5 7 5 6 5 4 7 12 13 13 13 13 13 13 13 13 13 13 12 11 11
5 4 5 4 4 3 3 3 3 3 2 1 2 3 2 2 2 3 2 2 2 3 4 4 6 6 7 5 5 9 13 13 13 14 14 13 13 13 13 14 13 13 12
5 5 5 5 4 3 3 4 3 3 3 1 1 1 2 3 2 2 3 2 2 3 4 5 6 6 7 5 6 9 12 12 13 14 14 14 14 14 14 14 15 14 13
4 5 5 4 4 4 4 4 3 3 3 3 2 1 1 1 2 2 2 2 2 2 3 4 4 4 5 6 6 9 12 12 13 13 14 13 13 13 14 15 15 15 15
3 4 5 5 4 4 4 4 4 4 3 3 3 2 2 2 2 2 2 2 2 3 2 2 3 3 4 5 8 11 12 12 12 13 13 13 13 13 13 14 14 14 14
3 4 4 4 4 5 5 4 4 4 4 4 4 3 3 3 3 3 2 2 2 2 2 2 3 3 4 3 5 9 10 12 12 12 12 12 12 12 12 12 13 13 13
4 5 5 4 5 5 5 4 3 4 3 4 4 4 2 3 3 3 3 2 1 2 2 3 2 3 3 3 5 7 6 10 11 12 12 12 11 11 10 10 11 10 11
4 4 5 4 4 4 4 3 3 4 4 4 4 4 3 2 2 2 3 3 3 2 3 3 2 3 3 3 5 4 4 7 10 11 11 11 11 11 11 11 10 10 10
4 4 4 4 4 4 4 3 3 3 3 3 3 3 3 2 2 1 2 2 3 3 3 3 3 3 2 3 4 4 4 6 7 9 9 10 10 10 11 11 11 11 11
4 4 4 4 4 4 3 3 3 3 3 3 3 3 3 2 1 1 1 1 2 2 3 3 1 1 2 2 1 2 2 2 3 6 8 9 9 10 10 10 10 10 10
3 4 3 3 3 3 3 3 4 3 3 3 3 2 2 2 1 1 1 1 2 2 2 3 2 1 1 2 1 1 2 2 2 4 6 7 8 8 9 8 8 9 9
3 3 3 3 3 3 3 3 3 3 3 3 2 2 2 1 1 1 1 1 1 1 1 1 1 1 1 0 0 1 1 1 2 2 4 5 6 6 7 7 8 8 8
3 3 3 3 3 3 3 3 2 2 1 1 1 2 2 1 1 1 1 1 0 1 1 1 0 1 1 1 1 0 1 1 2 2 1 1 2 3 3 4 5 6 7
3 3 2 2 2 2 2 2 2 2 2 2 1 1 2 3 2 1 1 1 1 1 1 1 1 1 1 1 1 1 1 1 2 1 1 2 1 1 1 2 3 3 4
2 2 2 2 2 1 1 3 3 2 2 2 2 2 2 3 4 6 6 6 4 2 2 1 1 1 1 1 1 1 1 1 2 2 1 2 1 1 1 1 2 2 2
3 3 2 3 2 1 3 4 4 3 3 3 2 2 3 3 4 3 5 6 6 6 4 3 2 0 1 1 1 1 0 0 1 2 1 2 1 1 2 2 2 1 1
3 3 2 2 3 2 4 5 5 4 4 3 3 3 3 2 3 3 4 4 4 4 3 3 2 0 1 1 1 1 1 0 0 2 2 1 2 2 2 2 4 2 2
3 3 3 3 3 3 4 5 6 4 4 4 3 3 3 3 3 4 4 4 3 3 4 6 5 4 5 5 3 2 2 2 1 2 2 1 1 2 2 2 3 4 4
4 4 4 3 4 3 4 6 6 4 4 3 3 3 4 4 4 4 4 4 3 1 2 4 4 5 4 5 6 3 2 2 1 1 2 1 1 1 2 2 2 3 3
Wind_Direction
156 157 163 167 179 168 169 177 183 203 139 123 122 127 133 140 147 155 163 173 173 174 172 170 168 167 165 165 164 163 162 161 162 162 162 161 161 162 162 162 161 159 157
153 153 154 160 171 161 158 145 150 140 117 109 112 131 142 148 154 157 158 179 183 182 181 179 177 173 173 173 173 172 170 170 170 170 169 169 170 170 170 169 169 167 166
147 143 138 151 173 162 143 122 97 78 88 93 99 122 131 145 153 157 162 167 183 188 187 187 184 184 182 181 181 181 182 180 178 179 178 177 178 178 178 178 178 177 175
147 136 136 153 173 147 134 125 93 83 71 82 81 114 128 147 162 167 168 174 182 192 196 195 194 194 193 191 190 191 191 190 188 187 188 188 188 188 188 187 187 185 185
146 139 146 155 144 128 151 162 110 124 131 117 148 159 151 163 170 172 177 190 192 196 197 204 202 201 203 202 201 200 198 199 197 197 199 199 199 197 195 194 194 194 195
156 146 153 160 140 130 137 127 131 120 148 173 26 20 307 208 180 183 190 194 196 201 200 208 205 210 212 211 210 209 207 205 205 205 206 206 206 204 202 202 201 201 204
167 156 165 166 154 158 179 164 142 112 84 105 65 6 340 331 231 204 195 192 199 201 195 203 202 205 215 215 215 215 214 210 210 211 212 211 211 209 208 209 208 209 211
182 178 177 180 176 163 179 174 150 137 188 143 130 87 358 343 329 260 201 197 200 191 194 202 204 206 210 208 216 217 217 216 216 215 215 215 215 213 213 214 214 214 215
193 186 186 185 185 176 190 198 180 163 185 234 160 148 153 236 299 318 274 221 202 189 197 199 206 212 209 210 213 220 219 219 220 221 220 218 216 215 216 218 219 218 218
199 189 190 191 192 190 195 207 192 177 168 200 243 197 180 173 172 297 313 291 229 206 208 209 210 213 212 210 212 213 217 219 220 222 222 221 219 218 218 221 224 224 223
209 195 193 193 197 199 203 210 195 191 180 185 200 204 193 189 171 170 266 298 304 255 224 219 215 216 216 210 210 215 214 215 218 221 222 222 221 221 221 224 228 229 228
214 210 203 202 203 205 208 210 206 199 199 195 196 194 185 189 203 185 217 249 264 272 255 234 222 221 219 209 215 213 212 215 217 220 221 221 222 222 223 225 228 230 231
210 215 212 207 208 213 211 206 205 212 205 200 204 212 207 210 194 187 193 228 249 273 277 264 239 222 223 211 217 214 215 215 218 219 220 221 223 223 223 224 227 231 233
210 207 205 206 211 212 216 203 204 213 207 212 222 218 217 225 205 194 188 183 240 284 279 263 266 235 228 211 218 213 218 216 217 217 218 218 218 219 221 223 226 231 235
207 204 204 207 212 211 212 203 213 215 212 216 223 221 222 229 215 210 197 183 181 231 265 257 252 246 230 214 214 208 217 218 216 217 218 217 217 217 218 219 222 225 231
204 198 204 206 207 206 205 201 213 219 212 222 220 219 228 234 235 229 212 211 195 197 240 251 235 236 233 234 215 208 219 224 223 218 218 218 218 217 218 219 222 225 228
193 201 205 201 203 209 208 201 212 210 212 229 232 215 225 222 229 244 226 211 206 187 233 271 255 249 214 237 246 228 226 226 234 226 222 223 222 222 223 224 227 231 235
196 198 190 184 199 204 202 200 214 216 213 227 233 217 237 229 228 246 239 231 228 214 206 252 278 268 237 231 229 227 238 232 234 236 225 223 223 225 228 229 230 233 236
189 183 170 178 194 196 197 204 204 208 212 219 211 198 223 210 250 268 249 244 242 231 192 199 268 282 289 344 29 315 304 306 271 261 233 230 228 227 231 231 232 234 236
164 167 175 186 190 187 189 194 186 190 188 186 179 176 180 181 227 249 243 254 206 88 70 88 1 354 2 339 70 27 338 326 309 312 310 255 253 246 249 247 244 244 243
171 173 169 156 151 162 182 170 163 158 149 126 98 101 101 97 88 90 83 83 100 96 82 77 59 38 16 13 350 301 270 305 322 337 344 342 344 348 310 281 265 255 247
164 151 145 138 133 169 134 142 146 130 125 122 112 83 69 65 78 77 76 74 82 102 113 99 75 65 337 319 313 308 272 316 317 333 353 332 12 352 317 307 303 262 252
152 136 136 132 132 115 113 119 123 115 107 104 100 84 71 69 85 88 76 69 62 68 95 129 121 195 274 286 300 340 347 349 263 300 4 326 344 349 334 359 3 336 259
143 144 132 133 125 100 109 118 117 105 94 86 88 97 96 80 86 102 92 75 60 45 57 79 103 52 352 311 215 194 190 130 12 354 31 340 331 337 353 5 17 22 359
130 124 116 113 109 94 102 116 115 100 91 77 74 77 94 95 86 99 98 91 69 40 52 64 62 51 43 36 45 83 65 71 19 346 8 46 314 327 338 350 6 16 12
122 115 103 97 108 107 105 112 116 108 99 85 65 58 68 86 91 104 110 110 96 49 49 44 36 26 27 30 37 63 97 97 76 347 335 23 324 0 349 344 358 360 4